Regional Weather Roundup
Issued by NWS

Home | Current Version | Previous Version | Graphics & Text | Print | Product List | Glossary On
Versions: 1 2 3 4 5 6 7 8 9 10 11 12 13 14 15 16 17 18 19 20 21 22 23 24 25 26 27 28 29 30 31 32 33 34 35 36 37 38 39 40 41 42 43 44 45 46 47 48 49 50
000
ASUS43 KDMX 262107
RWRIA

WEATHER ROUNDUP FOR IOWA
NATIONAL WEATHER SERVICE DES MOINES IA
300 PM CST WED NOV 26 2014

NOTE: "FAIR" INDICATES FEW OR NO CLOUDS BELOW 12,000 FEET WITH NO
SIGNIFICANT WEATHER AND/OR OBSTRUCTIONS TO VISIBILITY.

* - THESE STATIONS ARE NOT NWS STATIONS...THUS NOT UNDER NWS
QUALITY CONTROL.  THEY ALSO DO NOT REPORT WEATHER SUCH
AS PRECIPITATION OR FOG.

IAZ001>003-012>014-020>022-031>034-043>046-262200-
   NORTHWEST IOWA

CITY           SKY/WX    TMP DP  RH WIND       PRES   REMARKS
CARROLL *      LGT RAIN  27  25  93 N21G30    30.13R WCI  13
CHEROKEE *     CLOUDY    23  19  86 N15G25    30.22R WCI  10
DENISON *      CLOUDY    27  23  86 N17G29    30.16R WCI  14
LE MARS *      CLOUDY    23  19  86 N15G22    30.27R WCI  10
ORANGE CITY *  CLOUDY    25  19  80 N14G21    30.24R WCI  13
SHELDON *      CLOUDY    21  18  86 N18       30.23R WCI   6
SIOUX CITY     CLOUDY    27  19  72 NW22      30.26R WCI  13
SPENCER        CLOUDY    21  16  81 N18       30.20R WCI   6
STORM LAKE *   PTSUNNY   25  21  86 N18G28    30.17R WCI  11
$$

IAZ055>058-069>071-079>083-090>094-262200-
   SOUTHWEST IOWA

CITY           SKY/WX    TMP DP  RH WIND       PRES   REMARKS
ATLANTIC *     CLOUDY    28  25  86 N20G30    30.13R WCI  15
AUDUBON *      SUNNY     27  21  80 N17G26    30.13R WCI  14
CLARINDA *     CLOUDY    32  27  80 N23G36    30.12R WCI  19
COUNCIL BLFS * CLOUDY    28  25  86 N23G30    30.15R WCI  14
CRESTON *      CLOUDY    28  28 100 N18G28    30.05R FOG     WCI  16
HARLAN  *      CLOUDY    27  25  93 N24G35    30.18R WCI  12
LAMONI         CLOUDY    30  27  88 NW18G28   30.02R WCI  18
RED OAK *      MIX PCPN  30  25  80 N25G37    30.13R WCI  16
SHENANDOAH *   CLOUDY    30  25  80 N17G30    30.15R WCI  18
$$

IAZ047>049-059>061-072>074-084-262200-
   CENTRAL IOWA

CITY           SKY/WX    TMP DP  RH WIND       PRES   REMARKS
AMES           LGT SNOW  30  26  85 N15       30.08R FOG     WCI  19
ANKENY *       CLOUDY    30  28  93 N12G17    30.07R FOG     WCI  21
CHARITON *     LGT SNOW  32  30  93 N12       30.01R WCI  23
DES MOINES     FLURRIES  32  27  81 N13       30.06R WCI  22
GRINNELL*      LGT SNOW  30  28  93 NE12      30.04R WCI  21
KNOXVILLE *    LGT SNOW  30  28  93 NE9       30.01R VSB 3/4 WCI  22
MARSHALLTOWN   LGT SNOW  30  27  88 NE13      30.07R VSB 3/4 WCI  20
PELLA *        CLOUDY    32  28  86 NE6       30.05R FOG     WCI  26
PERRY *        LGT SNOW  30  27  86 N17G24    30.09R WCI  18
$$

IAZ004>006-015-016-023>025-035-036-262200-
   NORTH CENTRAL IOWA

CITY           SKY/WX    TMP DP  RH WIND       PRES   REMARKS
ALGONA *       MIX PCPN  25  23  93 N13G22    30.17R VSB 1   WCI  13
CLARION *      HVY RAIN  27  27 100 N16       30.13R VSB 1/2 WCI  14
ESTHERVILLE    MIX PCPN  22  19  89 N21       30.19R FOG     WCI   6
FORT DODGE *   CLOUDY    27  21  80 N13       30.14R VSB 1   WCI  16
MASON CITY     LGT SNOW  25  22  88 N15       30.15R VSB 3/4 WCI  13
FOREST CITY *  LGT SNOW  27  27 100 NE10      30.15R WCI  17
IOWA FALLS *   LGT SNOW  30  27  86 N9        30.11R WCI  22
$$

IAZ007>011-017>019-026>030-037>042-050>054-066-262200-
   NORTHEAST IOWA

CITY           SKY/WX    TMP DP  RH WIND       PRES   REMARKS
CEDAR RAPIDS   CLOUDY    30  26  85 E13       30.06R WCI  20
CHARLES CITY * LGT SNOW  27  25  93 NE13      30.14R WCI  16
CLINTON *      CLOUDY    28  21  74 E12       30.11R WCI  18
DECORAH *      MIX PCPN  27  21  80 N9        30.12R WCI  17
DUBUQUE        CLOUDY    27  23  85 NE8       30.09R FOG     WCI  19
MONTICELLO *   CLOUDY    28  25  86 E8        30.09R WCI  20
OELWEIN *      MIX PCPN  30  25  80 NE12      30.11R WCI  21
WATERLOO       CLOUDY    30  27  88 NE10      30.11R FOG     WCI  21
$$

IAZ064-065-067-068-078-262200-
   EAST CENTRAL IOWA

CITY           SKY/WX    TMP DP  RH WIND       PRES   REMARKS
DAVENPORT      CLOUDY    28  23  81 E15       30.08R WCI  16
IOWA CITY      FLURRIES  30  25  81 NE15      30.07R WCI  19
MT. PLEASANT * SNOW      30  30 100 E10       30.02R VSB 1/2 WCI  21
MUSCATINE *    MOSUNNY   30  27  86 E14       30.06R FOG     WCI  20
QUAD CITIES    CLOUDY    29  24  82 E15       30.07R HAZE    WCI  18
$$

IAZ062-063-075>077-085>089-095>099-262200-
   SOUTHEAST IOWA

CITY           SKY/WX    TMP DP  RH WIND       PRES   REMARKS
BURLINGTON     SNOW      31  29  92 E10       30.01R VSB 1/2 WCI  22
FAIRFIELD *    CLOUDY    30  28  93 E14       30.01R FOG     WCI  20
FORT MADISON * LGT SNOW  34  32  93 E9        30.01R VSB 3/4 WCI  26
KEOKUK *       LGT SNOW  32  32 100 E10       29.99R WCI  24
OSKALOOSA *    LGT SNOW  30  28  93 E13       30.02R VSB 3/4 WCI  20
CENTERVILLE *  CLOUDY    32  32 100 NE7       29.98R WCI  26
OTTUMWA        LGT SNOW  30  28  92 E14       30.00R FOG     WCI  19
WASHINGTON *   LGT SNOW  30  30 100 E16       30.02R VSB 3/4 WCI  19
$$

ABBREVIATIONS USED IN REMARKS
   TC - TEMPERATURES IN CELSIUS
  WCI - WIND CHILL INDEX
   HX - HEAT INDEX
  VSB - VISIBILITY
$$



USA.gov is the U.S. government's official web portal to all federal, state and local government web resources and services.